Regional Weather Roundup
Issued by NWS

Home | Current Version | Previous Version | Graphics & Text | Print | Product List | Glossary On
Versions: 1 2 3 4 5 6 7 8 9 10 11 12 13 14 15 16 17 18 19 20 21 22 23 24 25 26 27 28 29 30 31 32 33 34 35 36 37 38 39 40 41 42 43 44 45 46 47 48 49 50
000
ASUS43 KMKX 061621
RWRWI

WISCONSIN REGIONAL WEATHER ROUNDUP
NATIONAL WEATHER SERVICE MILWAUKEE/SULLIVAN WI
1000 AM CST FRI MAR 06 2015

NOTE: "FAIR" INDICATES FEW OR NO CLOUDS BELOW 12,000 FEET WITH NO
SIGNIFICANT WEATHER AND/OR OBSTRUCTIONS TO VISIBILITY.

WIZ001-002-006>008-014>016-023>028-061700-
NORTHWEST WISCONSIN

CITY           SKY/WX    TMP DP  RH WIND       PRES   REMARKS
SUPERIOR ARPT  SUNNY     21   8  58 W13       30.01S WCI   8
ASHLAND        MOSUNNY   21   6  52 W16G22    30.00F WCI   7
HAYWARD        SUNNY     16   3  56 SW14      30.01F WCI   2
SIREN          SUNNY     20   8  57 SW12      30.04S WCI   8
CUMBERLAND     MOSUNNY   18   7  62 S12       30.03S WCI   5
RICE LAKE      CLOUDY    16   5  62 S8        30.07S WCI   5
CHETEK         CLOUDY    16   4  59 S9        30.07R WCI   5
LADYSMITH      CLOUDY    15   4  62 SW10      30.08R WCI   2
EAU CLAIRE     CLOUDY    19   6  57 S13       30.07F WCI   6
MENOMONIE      CLOUDY    20   7  59 S7        30.09S WCI  11
NEW RICHMOND   PTSUNNY   19   8  61 SW9       30.06S WCI   9
OSCEOLA        SUNNY     21   9  59 SW8       30.09S WCI  11
$$

WIZ003>005-009-010-017-018-061700-
NORTH CENTRAL WISCONSIN

CITY           SKY/WX    TMP DP  RH WIND       PRES   REMARKS
MANITOWISH WTR CLOUDY    14   2  59 SW10G17   29.98S WCI   1
ARBOR VITAE    PTSUNNY   17   4  58 SW8G16    29.98F WCI   6
WOODRUFF       PTSUNNY   17   4  58 SW8G16    29.98F WCI   6
RHINELANDER    CLOUDY    13   1  59 SW15      30.01F WCI  -3
EAGLE RIVER    MOSUNNY   13   0  55 SW12G18   29.98F WCI   0
LAND O LAKES   MOSUNNY   17   1  51 SW12G17   29.97F WCI   4
PHILLIPS       CLOUDY    13   2  61 SW9       30.01F WCI   1
TOMAHAWK       CLOUDY    16   3  56 S3        30.03F
MEDFORD        CLOUDY    11   2  66 SW13      30.05F WCI  -3
MERRILL        CLOUDY    13   1  58 SW8       30.07F WCI   2
$$

WIZ029-030-035-036-043>047-061700-
CENTRAL WISCONSIN

CITY           SKY/WX    TMP DP  RH WIND       PRES   REMARKS
WAUSAU         CLOUDY    14   2  58 S12       30.09F WCI   0
MOSINEE        PTSUNNY   12   3  67 S14G21    30.11F WCI  -3
MARSHFIELD     CLOUDY    17   4  56 SW14      30.09F WCI   3
STEVENS POINT  PTSUNNY   16   2  55 S13G21    30.12F WCI   2
WAUPACA        SUNNY     20   4  49 S6        30.18F WCI  13
WAUTOMA        MOSUNNY   19   3  49 SW13      30.19F WCI   6
WISC RAPIDS    PTSUNNY   17   2  51 S16       30.15F WCI   2
CAMP DOUGLAS   MOSUNNY   21   9  58 SW14      30.15F WCI   8
$$

WIZ011>013-019>022-031-037>040-048>050-061700-
NORTHEAST WISCONSIN

CITY           SKY/WX    TMP DP  RH WIND       PRES   REMARKS
ANTIGO         CLOUDY    15   4  61 SW20      30.05F WCI  -3
SHAWANO        SUNNY     16   2  52 SW14      30.17F WCI   2
OCONTO         MOSUNNY   15   1  54 SW10      30.17F WCI   2
STURGEON BAY   CLOUDY    18   3  53 S17       30.18F WCI   2
GREEN BAY      MOSUNNY   12   3  67 S14       30.20F WCI  -3
MANITOWOC      CLOUDY    21   6  52 SW14      30.23F WCI   8
APPLETON       PTSUNNY   14   3  62 SW17G23   30.20F WCI  -3
CLINTONVILLE   MOSUNNY   16   3  57 SW10      30.17F WCI   3
OSHKOSH        MOSUNNY   16   4  59 SW20G29   30.20F WCI  -1
$$

WIZ032>034-041-042-053>061-061700-
SOUTHWEST WISCONSIN

CITY           SKY/WX    TMP DP  RH WIND       PRES   REMARKS
LA CROSSE      SUNNY     19   6  57 S10       30.17F WCI   7
SPARTA         PTSUNNY   20   6  54 S10G18    30.16F WCI   9
VIROQUA        SUNNY     18   7  61 SW18G24   30.15F WCI   2
BOSCOBEL       MOSUNNY   21   6  52 SW9       30.23F WCI  11
PRAIRIE DU CHI SUNNY     20   6  53 S9        30.23F WCI  10
PLATTEVILLE    SUNNY     14   5  68 S9        30.24F WCI   2
$$

WIZ056-057-062-063-064-067-068-061700-
SOUTH CENTRAL WISCONSIN

CITY           SKY/WX    TMP DP  RH WIND       PRES   REMARKS
REEDSBURG      SUNNY     19   6  58 S9G18     30.19F WCI   8
BARABOO/DELLS  SUNNY     19   5  55 SW13G21   30.18F WCI   5
LONE ROCK      SUNNY     20   5  52 SW8       30.24F WCI  10
MINERAL POINT  SUNNY     19   7  58 S13G20    30.21S WCI   7
MADISON        PTSUNNY   16   3  56 S14G22    30.24F WCI   2
MIDDLETON      MOSUNNY   19   3  51 S15       30.23F WCI   4
WATERTOWN      SUNNY     16   5  62 S15G21    30.25F WCI   1
MONROE         SUNNY     18   9  68 S17       30.23F WCI   2
JANESVILLE     MOSUNNY   18   5  57 SW16      30.28F WCI   3
$$

WIZ051-052-058>065-066-070>072-061700-
SOUTHEAST WISCONSIN

CITY           SKY/WX    TMP DP  RH WIND       PRES   REMARKS
MILWAUKEE      PTSUNNY   15   2  56 SW15G23   30.30F WCI   0
WAUKESHA       SUNNY     16   1  53 S15       30.27F WCI   1
MILWAUKEE/TIMM SUNNY     16   1  53 S16       30.29F WCI   0
RACINE         MOSUNNY   16   4  59 S16G22    30.33F WCI   1
BURLINGTON     SUNNY     14   3  61 S20       30.29F WCI  -3
KENOSHA        MOSUNNY   17   5  59 SW16      30.32F WCI   2
FOND DU LAC    MOSUNNY   17   4  56 SW21G31   30.22F WCI   0
SHEBOYGAN      MOSUNNY   18   6  59 SW21      30.23F WCI   1
WEST BEND      MOSUNNY   19   3  49 SW15G24   30.24F WCI   5
JUNEAU         SUNNY     14   4  63 S18       30.25F WCI  -3
$$

LSZ147-162-061700-
LAKE SUPERIOR

STATION/POSITION TIME  TEMP    WIND        PRES    WAVE
                       AIR SEA DIR/SP/G            HT/PER
                 (UTC) (F)     (DEG/KT/KT) (MB)    (FT/S)
DEVILS ISLAND    1600   18     240/ 23/ 25 1015.9F
PORT WING        1500   18     210/ 10/ 17 1015.9
SAXON HARBOR     1500   17     210/ 11/ 22 1015.9S
$$

LMZ867-665-643>646-061700-
LAKE MICHIGAN

STATION/POSITION TIME  TEMP    WIND        PRES    WAVE
                       AIR SEA DIR/SP/G            HT/PER
                 (UTC) (F)     (DEG/KT/KT) (MB)    (FT/S)
NORTHPORT PIER   1602   18     220/ 10/ 22 1021.0F
KEWAUNEE LAKESHO 1500   14     220/ 13/ 18 1022.7F
SHEBOYGAN LAKESH 1600   17     210/ 20/ 23 1025.7F
PORT WASHINGTON  1600   20     190/ 12/ 17 1025.7
MILWAUKEE LAKESH 1600   17     220/ 16/ 19   N/A
KENOSHA   LAKESH 1600   17     200/ 10/ 17 1027.1F
$$

TC  - TEMPERATURE IN CELSIUS
VSB - VISIBILITY IN STATUTE MILES
WCI - WIND CHILL INDEX
HX  - HEAT INDEX



USA.gov is the U.S. government's official web portal to all federal, state and local government web resources and services.